Tracking 19720 objects as of 27-Jun-2019
HD Live streaming from Space Station
objects crossing your sky now

GALAXY 3R

Track GALAXY 3R now!
GALAXY 3R is classified as:


NORAD ID: 23741
Int'l Code: 1995-069A
Perigee: 35,778.4 km
Apogee: 35,825.4 km
Inclination: 10.9 °
Period: 1,436.5 minutes
Semi major axis: 42172 km
RCS: 12.3125 m2 (large)
Launch date: December 15, 1995
Source: United States (US)
Launch site: AIR FORCE EASTERN TEST RANGE (AFETR)

24 C-band, 16 Ku-band; North America, Caribbean; 140 television channels.
aabbcc
Your satellite tracking list
Your tracking list is empty




NASA's NSSDC Master Catalog

Two Line Element Set (TLE):
1 23741U 95069A   19177.17437697 -.00000244  00000-0  00000+0 0  9995
2 23741  10.8679  33.7994 0005579  12.6466 211.3719  1.00242637 86256
Source of the keplerian elements: AFSPC